QPF
0.00 0.00 0.00 0.00 0.00 0.00 0.00 0.00 0.00 0.00 0.00 0.00 0.00 0.00 0.00 0.00 0.00 0.00 0.00 0.00 0.01 0.01 0.01 0.01 0.01 0.01 0.01 0.02 0.02 0.02 0.02 0.02 0.02 0.02 0.02 0.01 0.01 0.01 0.02 0.03 0.04 0.03 0.03 0.02
0.00 0.00 0.00 0.00 0.00 0.00 0.00 0.00 0.01 0.01 0.00 0.00 0.00 0.01 0.01 0.00 0.00 0.00 0.00 0.00 0.01 0.01 0.01 0.01 0.01 0.01 0.01 0.03 0.03 0.02 0.02 0.02 0.02 0.02 0.02 0.01 0.01 0.01 0.02 0.03 0.04 0.03 0.03 0.03
0.00 0.00 0.00 0.00 0.00 0.00 0.00 0.00 0.01 0.01 0.01 0.00 0.01 0.00 0.00 0.00 0.00 0.00 0.00 0.01 0.01 0.01 0.01 0.01 0.01 0.01 0.01 0.02 0.03 0.02 0.02 0.01 0.02 0.02 0.02 0.02 0.02 0.02 0.02 0.03 0.03 0.03 0.03 0.03
0.00 0.00 0.00 0.00 0.00 0.00 0.00 0.00 0.00 0.00 0.00 0.00 0.01 0.01 0.01 0.00 0.00 0.00 0.00 0.00 0.01 0.01 0.01 0.00 0.00 0.00 0.01 0.01 0.02 0.02 0.01 0.01 0.01 0.01 0.02 0.02 0.02 0.03 0.04 0.03 0.03 0.04 0.04 0.04
0.00 0.00 0.00 0.00 0.00 0.00 0.00 0.00 0.00 0.00 0.00 0.00 0.01 0.01 0.01 0.00 0.00 0.00 0.00 0.01 0.01 0.01 0.01 0.01 0.00 0.00 0.00 0.00 0.00 0.01 0.01 0.01 0.02 0.02 0.03 0.03 0.03 0.04 0.05 0.04 0.04 0.04 0.04 0.03
0.00 0.00 0.00 0.00 0.00 0.00 0.00 0.00 0.00 0.00 0.00 0.00 0.01 0.01 0.00 0.00 0.00 0.00 0.00 0.01 0.01 0.01 0.01 0.01 0.01 0.01 0.00 0.01 0.01 0.01 0.00 0.01 0.02 0.04 0.05 0.06 0.07 0.07 0.06 0.04 0.04 0.03 0.03 0.02
0.00 0.00 0.00 0.00 0.00 0.00 0.00 0.01 0.00 0.00 0.00 0.00 0.00 0.00 0.00 0.00 0.01 0.01 0.01 0.01 0.01 0.01 0.01 0.01 0.01 0.01 0.01 0.01 0.01 0.01 0.00 0.01 0.01 0.03 0.03 0.05 0.07 0.06 0.05 0.05 0.04 0.03 0.02 0.01
0.00 0.00 0.00 0.00 0.00 0.01 0.01 0.00 0.00 0.00 0.00 0.01 0.01 0.00 0.01 0.01 0.02 0.02 0.02 0.01 0.01 0.02 0.02 0.02 0.01 0.01 0.00 0.00 0.01 0.01 0.01 0.01 0.01 0.01 0.01 0.02 0.04 0.04 0.04 0.04 0.03 0.02 0.01 0.01
0.00 0.00 0.00 0.00 0.00 0.00 0.00 0.01 0.00 0.01 0.01 0.01 0.01 0.01 0.01 0.01 0.02 0.02 0.01 0.01 0.01 0.02 0.03 0.03 0.01 0.01 0.01 0.01 0.01 0.01 0.01 0.01 0.01 0.01 0.01 0.01 0.02 0.02 0.02 0.02 0.01 0.01 0.01 0.01
0.00 0.00 0.00 0.00 0.00 0.01 0.01 0.01 0.01 0.01 0.01 0.01 0.01 0.01 0.01 0.01 0.01 0.01 0.01 0.01 0.01 0.02 0.03 0.06 0.03 0.01 0.02 0.01 0.01 0.01 0.01 0.01 0.01 0.02 0.02 0.02 0.03 0.03 0.03 0.03 0.02 0.01 0.02 0.01
0.00 0.01 0.01 0.01 0.01 0.01 0.01 0.01 0.00 0.01 0.01 0.01 0.01 0.00 0.00 0.01 0.01 0.01 0.01 0.01 0.01 0.02 0.03 0.07 0.07 0.03 0.02 0.02 0.01 0.01 0.01 0.01 0.02 0.03 0.04 0.04 0.03 0.03 0.03 0.02 0.02 0.02 0.01 0.01
0.01 0.00 0.01 0.01 0.01 0.01 0.01 0.01 0.01 0.01 0.01 0.01 0.00 0.00 0.00 0.01 0.01 0.01 0.01 0.01 0.01 0.02 0.02 0.05 0.07 0.05 0.04 0.02 0.02 0.02 0.01 0.01 0.02 0.03 0.04 0.03 0.03 0.03 0.02 0.01 0.01 0.01 0.01 0.01
0.00 0.00 0.01 0.01 0.00 0.00 0.01 0.01 0.01 0.01 0.01 0.01 0.01 0.01 0.01 0.01 0.02 0.02 0.02 0.01 0.02 0.02 0.02 0.03 0.04 0.05 0.04 0.03 0.03 0.03 0.02 0.02 0.02 0.02 0.02 0.02 0.02 0.02 0.01 0.01 0.01 0.00 0.00 0.00
0.00 0.00 0.01 0.00 0.00 0.00 0.01 0.01 0.01 0.01 0.01 0.01 0.01 0.02 0.01 0.01 0.01 0.01 0.02 0.02 0.03 0.02 0.01 0.01 0.03 0.04 0.04 0.03 0.02 0.03 0.03 0.02 0.02 0.03 0.03 0.03 0.02 0.02 0.01 0.01 0.01 0.00 0.00 0.00
0.00 0.00 0.00 0.01 0.00 0.01 0.01 0.01 0.01 0.01 0.01 0.01 0.02 0.02 0.02 0.01 0.01 0.02 0.02 0.02 0.02 0.02 0.02 0.03 0.04 0.05 0.06 0.06 0.06 0.04 0.02 0.02 0.02 0.03 0.03 0.04 0.03 0.02 0.02 0.01 0.01 0.01 0.01 0.01
0.00 0.00 0.00 0.00 0.01 0.01 0.01 0.01 0.02 0.02 0.01 0.02 0.02 0.02 0.02 0.01 0.02 0.02 0.03 0.02 0.02 0.02 0.02 0.03 0.04 0.04 0.06 0.07 0.08 0.07 0.06 0.05 0.04 0.04 0.04 0.04 0.04 0.04 0.03 0.02 0.02 0.02 0.01 0.01
0.00 0.00 0.00 0.01 0.01 0.01 0.01 0.01 0.01 0.01 0.02 0.03 0.03 0.02 0.02 0.02 0.02 0.02 0.03 0.03 0.02 0.02 0.02 0.02 0.02 0.02 0.02 0.02 0.02 0.02 0.03 0.04 0.04 0.03 0.03 0.03 0.03 0.03 0.02 0.02 0.02 0.01 0.01 0.01
0.00 0.00 0.01 0.01 0.02 0.02 0.02 0.02 0.01 0.02 0.02 0.02 0.02 0.03 0.02 0.02 0.02 0.02 0.03 0.03 0.03 0.03 0.02 0.02 0.01 0.01 0.01 0.01 0.01 0.00 0.00 0.01 0.01 0.01 0.01 0.01 0.01 0.01 0.01 0.01 0.01 0.01 0.01 0.01
0.01 0.01 0.01 0.01 0.01 0.01 0.01 0.01 0.01 0.02 0.02 0.02 0.03 0.03 0.03 0.03 0.02 0.02 0.02 0.03 0.03 0.02 0.02 0.02 0.02 0.01 0.01 0.01 0.01 0.01 0.01 0.01 0.01 0.01 0.01 0.00 0.00 0.00 0.00 0.01 0.01 0.01 0.01 0.01
0.02 0.01 0.01 0.00 0.00 0.00 0.00 0.01 0.01 0.02 0.02 0.02 0.03 0.02 0.03 0.03 0.03 0.03 0.03 0.03 0.02 0.02 0.02 0.02 0.01 0.01 0.01 0.01 0.01 0.02 0.02 0.02 0.01 0.01 0.01 0.01 0.01 0.01 0.01 0.01 0.01 0.01 0.01 0.01
0.02 0.02 0.02 0.01 0.01 0.01 0.01 0.01 0.01 0.02 0.03 0.03 0.02 0.02 0.03 0.03 0.03 0.03 0.04 0.03 0.02 0.02 0.01 0.01 0.00 0.01 0.02 0.02 0.02 0.02 0.02 0.02 0.01 0.01 0.01 0.01 0.01 0.01 0.01 0.02 0.02 0.02 0.01 0.02
0.05 0.06 0.05 0.03 0.02 0.02 0.02 0.01 0.01 0.02 0.04 0.05 0.05 0.03 0.03 0.03 0.03 0.03 0.05 0.03 0.02 0.02 0.01 0.00 0.00 0.01 0.01 0.02 0.02 0.01 0.01 0.01 0.01 0.01 0.01 0.01 0.01 0.01 0.02 0.02 0.02 0.02 0.02 0.02
0.04 0.03 0.02 0.01 0.01 0.01 0.01 0.01 0.01 0.01 0.03 0.05 0.05 0.04 0.04 0.05 0.05 0.04 0.05 0.05 0.02 0.02 0.01 0.01 0.01 0.02 0.02 0.01 0.01 0.01 0.01 0.01 0.01 0.01 0.01 0.01 0.01 0.01 0.02 0.02 0.03 0.02 0.02 0.02
0.02 0.02 0.02 0.01 0.01 0.01 0.02 0.01 0.01 0.01 0.01 0.03 0.04 0.03 0.04 0.05 0.05 0.04 0.05 0.04 0.03 0.01 0.01 0.01 0.02 0.01 0.01 0.01 0.01 0.01 0.01 0.01 0.01 0.01 0.01 0.01 0.01 0.02 0.02 0.02 0.02 0.02 0.02 0.02
0.02 0.02 0.02 0.02 0.02 0.02 0.02 0.01 0.01 0.01 0.01 0.01 0.02 0.02 0.02 0.02 0.03 0.03 0.04 0.03 0.02 0.01 0.01 0.01 0.01 0.02 0.02 0.02 0.02 0.02 0.01 0.01 0.02 0.01 0.01 0.01 0.02 0.02 0.02 0.01 0.01 0.01 0.01 0.01
0.02 0.02 0.02 0.02 0.02 0.02 0.02 0.01 0.01 0.01 0.01 0.01 0.02 0.02 0.02 0.02 0.02 0.02 0.02 0.02 0.02 0.01 0.01 0.01 0.01 0.01 0.02 0.03 0.03 0.03 0.02 0.02 0.02 0.02 0.02 0.03 0.03 0.03 0.02 0.02 0.01 0.01 0.01 0.01
0.03 0.03 0.03 0.03 0.03 0.02 0.01 0.01 0.01 0.01 0.01 0.01 0.01 0.01 0.02 0.02 0.02 0.01 0.02 0.01 0.01 0.01 0.01 0.01 0.01 0.02 0.04 0.05 0.04 0.04 0.03 0.03 0.03 0.03 0.03 0.03 0.03 0.03 0.02 0.02 0.02 0.01 0.01 0.01
MSLP
1011.89 1011.83 1011.81 1011.83 1011.90 1011.98 1012.05 1012.09 1012.05 1011.94 1011.75 1011.51 1011.24 1010.97 1010.76 1010.63 1010.59 1010.65 1010.79 1011.00 1011.23 1011.46 1011.67 1011.83 1011.95 1012.02 1012.05 1012.04 1012.02 1011.97 1011.91 1011.83 1011.72 1011.58 1011.40 1011.19 1010.95 1010.70 1010.43 1010.15 1009.89 1009.63 1009.39 1009.17
1012.04 1011.92 1011.82 1011.75 1011.73 1011.73 1011.75 1011.77 1011.77 1011.74 1011.67 1011.56 1011.44 1011.31 1011.22 1011.15 1011.14 1011.18 1011.27 1011.39 1011.54 1011.70 1011.84 1011.97 1012.08 1012.17 1012.22 1012.25 1012.24 1012.21 1012.13 1012.01 1011.83 1011.62 1011.37 1011.09 1010.78 1010.46 1010.13 1009.81 1009.49 1009.19 1008.89 1008.60
1012.23 1012.07 1011.90 1011.75 1011.65 1011.60 1011.59 1011.61 1011.66 1011.71 1011.77 1011.81 1011.83 1011.83 1011.83 1011.83 1011.82 1011.82 1011.83 1011.87 1011.91 1011.97 1012.05 1012.15 1012.24 1012.34 1012.43 1012.49 1012.52 1012.49 1012.41 1012.25 1012.03 1011.75 1011.42 1011.05 1010.66 1010.27 1009.88 1009.51 1009.14 1008.78 1008.43 1008.09
1012.53 1012.31 1012.08 1011.87 1011.71 1011.61 1011.57 1011.61 1011.71 1011.85 1012.02 1012.19 1012.34 1012.46 1012.53 1012.56 1012.55 1012.51 1012.44 1012.37 1012.31 1012.27 1012.28 1012.32 1012.41 1012.51 1012.63 1012.73 1012.79 1012.78 1012.69 1012.51 1012.24 1011.89 1011.49 1011.04 1010.58 1010.12 1009.67 1009.25 1008.84 1008.45 1008.07 1007.69
1012.93 1012.65 1012.37 1012.09 1011.87 1011.73 1011.68 1011.73 1011.87 1012.08 1012.34 1012.61 1012.87 1013.07 1013.21 1013.27 1013.25 1013.15 1013.01 1012.84 1012.69 1012.56 1012.49 1012.49 1012.55 1012.66 1012.80 1012.92 1013.00 1013.00 1012.91 1012.71 1012.40 1012.00 1011.53 1011.02 1010.50 1009.99 1009.50 1009.05 1008.62 1008.21 1007.81 1007.42
1013.37 1013.05 1012.71 1012.38 1012.11 1011.93 1011.86 1011.91 1012.07 1012.33 1012.65 1013.00 1013.33 1013.60 1013.78 1013.86 1013.82 1013.69 1013.49 1013.25 1013.01 1012.82 1012.69 1012.65 1012.69 1012.80 1012.94 1013.07 1013.16 1013.17 1013.06 1012.84 1012.50 1012.05 1011.54 1010.98 1010.42 1009.88 1009.38 1008.92 1008.50 1008.10 1007.71 1007.33
1013.81 1013.44 1013.06 1012.69 1012.38 1012.17 1012.07 1012.11 1012.29 1012.56 1012.91 1013.30 1013.67 1013.97 1014.18 1014.27 1014.23 1014.08 1013.84 1013.56 1013.29 1013.05 1012.89 1012.82 1012.85 1012.94 1013.07 1013.21 1013.29 1013.28 1013.16 1012.91 1012.54 1012.07 1011.52 1010.94 1010.37 1009.83 1009.33 1008.90 1008.51 1008.15 1007.79 1007.43
1014.16 1013.77 1013.36 1012.97 1012.65 1012.42 1012.31 1012.33 1012.49 1012.76 1013.11 1013.50 1013.87 1014.19 1014.40 1014.49 1014.46 1014.31 1014.07 1013.79 1013.50 1013.26 1013.10 1013.02 1013.03 1013.12 1013.24 1013.35 1013.41 1013.39 1013.24 1012.96 1012.57 1012.07 1011.51 1010.93 1010.37 1009.85 1009.39 1009.00 1008.66 1008.35 1008.06 1007.74
1014.39 1014.00 1013.60 1013.22 1012.90 1012.67 1012.55 1012.57 1012.71 1012.95 1013.27 1013.63 1013.98 1014.27 1014.48 1014.57 1014.54 1014.41 1014.19 1013.94 1013.68 1013.47 1013.33 1013.26 1013.28 1013.35 1013.46 1013.55 1013.58 1013.51 1013.33 1013.02 1012.61 1012.10 1011.55 1010.98 1010.45 1009.97 1009.57 1009.24 1008.96 1008.72 1008.49 1008.22
1014.48 1014.12 1013.76 1013.42 1013.14 1012.94 1012.84 1012.85 1012.97 1013.18 1013.45 1013.76 1014.06 1014.31 1014.48 1014.56 1014.54 1014.43 1014.26 1014.05 1013.85 1013.69 1013.59 1013.56 1013.59 1013.65 1013.74 1013.79 1013.78 1013.67 1013.45 1013.12 1012.68 1012.18 1011.64 1011.11 1010.61 1010.19 1009.85 1009.59 1009.38 1009.21 1009.03 1008.82
1014.47 1014.17 1013.87 1013.61 1013.39 1013.25 1013.18 1013.20 1013.30 1013.47 1013.69 1013.93 1014.15 1014.34 1014.47 1014.53 1014.51 1014.43 1014.31 1014.17 1014.03 1013.93 1013.89 1013.89 1013.93 1013.99 1014.05 1014.07 1014.01 1013.85 1013.60 1013.24 1012.79 1012.29 1011.78 1011.28 1010.85 1010.48 1010.21 1010.01 1009.86 1009.75 1009.62 1009.45
1014.41 1014.18 1013.97 1013.80 1013.67 1013.60 1013.58 1013.63 1013.72 1013.85 1014.01 1014.17 1014.31 1014.43 1014.51 1014.53 1014.51 1014.45 1014.37 1014.28 1014.22 1014.19 1014.19 1014.22 1014.28 1014.33 1014.36 1014.33 1014.23 1014.03 1013.73 1013.35 1012.91 1012.42 1011.94 1011.49 1011.11 1010.80 1010.58 1010.43 1010.33 1010.25 1010.16 1010.01
1014.37 1014.22 1014.10 1014.03 1013.99 1013.99 1014.03 1014.10 1014.19 1014.28 1014.38 1014.46 1014.53 1014.57 1014.59 1014.57 1014.53 1014.49 1014.45 1014.41 1014.41 1014.43 1014.47 1014.53 1014.59 1014.63 1014.63 1014.55 1014.40 1014.16 1013.84 1013.44 1013.00 1012.53 1012.09 1011.69 1011.35 1011.10 1010.93 1010.81 1010.75 1010.68 1010.59 1010.44
1014.41 1014.32 1014.27 1014.28 1014.33 1014.40 1014.49 1014.57 1014.66 1014.72 1014.77 1014.78 1014.77 1014.74 1014.69 1014.64 1014.59 1014.55 1014.53 1014.54 1014.57 1014.63 1014.71 1014.78 1014.83 1014.85 1014.81 1014.70 1014.50 1014.23 1013.88 1013.48 1013.05 1012.62 1012.21 1011.86 1011.57 1011.37 1011.22 1011.13 1011.07 1011.00 1010.89 1010.72
1014.54 1014.49 1014.50 1014.56 1014.66 1014.78 1014.90 1015.00 1015.07 1015.11 1015.11 1015.06 1014.99 1014.90 1014.80 1014.72 1014.65 1014.62 1014.62 1014.65 1014.72 1014.81 1014.89 1014.97 1015.01 1015.00 1014.93 1014.77 1014.54 1014.24 1013.88 1013.49 1013.08 1012.68 1012.32 1012.01 1011.77 1011.60 1011.47 1011.39 1011.31 1011.22 1011.08 1010.87
1014.77 1014.73 1014.76 1014.85 1014.97 1015.11 1015.24 1015.35 1015.40 1015.41 1015.36 1015.27 1015.15 1015.01 1014.89 1014.78 1014.71 1014.68 1014.70 1014.76 1014.85 1014.95 1015.04 1015.11 1015.13 1015.10 1014.99 1014.80 1014.55 1014.23 1013.87 1013.49 1013.11 1012.75 1012.44 1012.18 1011.97 1011.83 1011.71 1011.62 1011.53 1011.40 1011.22 1010.97
1015.07 1015.02 1015.04 1015.12 1015.25 1015.39 1015.51 1015.59 1015.63 1015.61 1015.53 1015.40 1015.25 1015.09 1014.95 1014.83 1014.77 1014.76 1014.79 1014.87 1014.98 1015.09 1015.19 1015.25 1015.25 1015.19 1015.05 1014.85 1014.57 1014.25 1013.89 1013.53 1013.19 1012.87 1012.60 1012.38 1012.21 1012.08 1011.97 1011.87 1011.75 1011.58 1011.36 1011.06
1015.40 1015.32 1015.33 1015.39 1015.50 1015.61 1015.72 1015.78 1015.79 1015.74 1015.63 1015.49 1015.32 1015.15 1015.01 1014.91 1014.85 1014.86 1014.92 1015.03 1015.15 1015.27 1015.37 1015.42 1015.41 1015.33 1015.17 1014.95 1014.67 1014.34 1014.00 1013.67 1013.35 1013.07 1012.83 1012.65 1012.50 1012.38 1012.27 1012.15 1012.00 1011.80 1011.54 1011.20
1015.73 1015.63 1015.62 1015.66 1015.75 1015.84 1015.92 1015.95 1015.94 1015.87 1015.74 1015.59 1015.41 1015.25 1015.12 1015.03 1015.01 1015.04 1015.13 1015.25 1015.39 1015.52 1015.63 1015.67 1015.65 1015.56 1015.39 1015.16 1014.87 1014.55 1014.22 1013.90 1013.61 1013.35 1013.14 1012.97 1012.83 1012.72 1012.59 1012.46 1012.28 1012.05 1011.75 1011.38
1016.02 1015.93 1015.92 1015.96 1016.03 1016.10 1016.16 1016.17 1016.13 1016.05 1015.91 1015.75 1015.58 1015.43 1015.31 1015.25 1015.24 1015.30 1015.41 1015.56 1015.72 1015.86 1015.97 1016.01 1015.99 1015.89 1015.71 1015.47 1015.18 1014.86 1014.53 1014.22 1013.94 1013.69 1013.49 1013.32 1013.18 1013.05 1012.91 1012.75 1012.54 1012.28 1011.95 1011.56
1016.28 1016.22 1016.22 1016.27 1016.35 1016.41 1016.46 1016.46 1016.41 1016.31 1016.17 1016.01 1015.84 1015.70 1015.59 1015.55 1015.57 1015.65 1015.78 1015.94 1016.11 1016.27 1016.38 1016.43 1016.40 1016.29 1016.11 1015.86 1015.57 1015.24 1014.91 1014.59 1014.30 1014.04 1013.83 1013.64 1013.48 1013.32 1013.15 1012.96 1012.72 1012.43 1012.08 1011.67
1016.49 1016.48 1016.52 1016.60 1016.69 1016.77 1016.82 1016.82 1016.76 1016.65 1016.51 1016.34 1016.18 1016.04 1015.95 1015.92 1015.95 1016.05 1016.19 1016.36 1016.54 1016.70 1016.81 1016.86 1016.83 1016.72 1016.53 1016.27 1015.97 1015.64 1015.29 1014.96 1014.65 1014.36 1014.11 1013.89 1013.69 1013.49 1013.28 1013.05 1012.78 1012.46 1012.08 1011.66
1016.64 1016.70 1016.80 1016.92 1017.04 1017.14 1017.19 1017.19 1017.13 1017.03 1016.88 1016.71 1016.55 1016.41 1016.32 1016.29 1016.33 1016.43 1016.58 1016.76 1016.93 1017.09 1017.21 1017.25 1017.23 1017.11 1016.92 1016.66 1016.35 1016.00 1015.63 1015.27 1014.93 1014.61 1014.32 1014.05 1013.80 1013.55 1013.29 1013.01 1012.69 1012.34 1011.93 1011.49
1016.74 1016.86 1017.01 1017.18 1017.33 1017.45 1017.51 1017.52 1017.46 1017.35 1017.20 1017.03 1016.87 1016.73 1016.64 1016.61 1016.65 1016.75 1016.90 1017.07 1017.25 1017.40 1017.51 1017.56 1017.53 1017.42 1017.23 1016.96 1016.64 1016.28 1015.90 1015.52 1015.14 1014.79 1014.45 1014.13 1013.82 1013.51 1013.20 1012.87 1012.51 1012.11 1011.67 1011.19
1016.77 1016.95 1017.14 1017.33 1017.51 1017.64 1017.71 1017.72 1017.67 1017.55 1017.40 1017.24 1017.07 1016.94 1016.86 1016.83 1016.87 1016.96 1017.10 1017.27 1017.44 1017.59 1017.69 1017.74 1017.71 1017.60 1017.41 1017.15 1016.84 1016.48 1016.09 1015.69 1015.29 1014.90 1014.53 1014.16 1013.81 1013.45 1013.08 1012.69 1012.29 1011.84 1011.36 1010.85
1016.73 1016.93 1017.15 1017.35 1017.54 1017.67 1017.75 1017.75 1017.70 1017.59 1017.45 1017.29 1017.14 1017.02 1016.95 1016.93 1016.96 1017.06 1017.19 1017.35 1017.51 1017.65 1017.75 1017.80 1017.77 1017.67 1017.49 1017.25 1016.94 1016.59 1016.22 1015.82 1015.42 1015.01 1014.61 1014.22 1013.83 1013.43 1013.01 1012.58 1012.12 1011.63 1011.11 1010.55
1016.61 1016.82 1017.03 1017.23 1017.41 1017.53 1017.61 1017.61 1017.57 1017.47 1017.35 1017.21 1017.09 1016.99 1016.93 1016.93 1016.97 1017.07 1017.20 1017.35 1017.50 1017.63 1017.72 1017.76 1017.74 1017.65 1017.49 1017.26 1016.98 1016.66 1016.31 1015.93 1015.55 1015.16 1014.76 1014.36 1013.95 1013.52 1013.07 1012.60 1012.10 1011.56 1010.99 1010.38
Thickness
5800 5804 5803 5800 5799 5800 5795 5796 5791 5794 5796 5799 5799 5798 5796 5794 5790 5784 5780 5778 5775 5772 5768 5765 5762 5759 5758 5755 5752 5750 5746 5742 5737 5733 5730 5726 5723 5719 5716 5712 5710 5706 5703 5701
5785 5796 5796 5792 5797 5798 5794 5795 5794 5793 5792 5802 5799 5796 5789 5786 5782 5777 5774 5771 5769 5766 5762 5759 5756 5754 5752 5750 5746 5743 5739 5735 5731 5727 5724 5721 5718 5714 5710 5706 5703 5700 5697 5696
5775 5787 5783 5777 5793 5793 5793 5794 5791 5786 5790 5793 5786 5783 5780 5778 5776 5772 5769 5766 5763 5760 5758 5755 5753 5750 5747 5745 5741 5736 5733 5729 5725 5721 5718 5715 5713 5709 5705 5700 5697 5694 5692 5690
5771 5766 5750 5783 5799 5796 5789 5789 5792 5788 5787 5785 5781 5780 5779 5777 5772 5768 5765 5761 5759 5756 5754 5752 5750 5747 5743 5740 5735 5731 5727 5723 5719 5716 5712 5709 5706 5702 5698 5695 5691 5689 5685 5683
5761 5757 5764 5778 5785 5785 5777 5775 5784 5781 5779 5778 5778 5773 5770 5772 5769 5764 5761 5758 5754 5752 5750 5747 5744 5741 5736 5733 5729 5724 5720 5716 5713 5710 5706 5702 5699 5695 5692 5688 5685 5683 5680 5677
5752 5744 5746 5767 5780 5784 5774 5761 5775 5774 5770 5769 5767 5758 5759 5764 5762 5759 5755 5752 5748 5745 5742 5738 5736 5734 5729 5725 5721 5716 5713 5710 5706 5703 5699 5695 5692 5689 5685 5682 5679 5678 5675 5672
5745 5743 5756 5766 5772 5771 5749 5751 5765 5766 5764 5762 5756 5755 5757 5756 5752 5749 5746 5744 5741 5737 5733 5730 5729 5726 5721 5717 5714 5711 5707 5703 5699 5696 5692 5689 5685 5681 5678 5676 5673 5671 5668 5666
5739 5734 5741 5758 5760 5752 5749 5756 5757 5756 5756 5753 5750 5749 5748 5745 5742 5740 5737 5735 5733 5728 5725 5723 5721 5717 5713 5709 5708 5704 5700 5696 5692 5689 5687 5684 5678 5675 5672 5669 5667 5664 5662 5660
5739 5738 5743 5751 5749 5750 5752 5747 5747 5747 5747 5744 5741 5739 5738 5736 5734 5732 5729 5726 5725 5721 5717 5715 5713 5710 5705 5702 5701 5697 5692 5688 5685 5682 5679 5676 5672 5668 5666 5664 5663 5661 5658 5656
5727 5733 5736 5739 5741 5742 5742 5740 5740 5740 5738 5737 5734 5733 5731 5729 5726 5724 5722 5719 5717 5713 5710 5707 5705 5703 5699 5696 5693 5690 5685 5681 5678 5675 5672 5669 5665 5664 5661 5659 5657 5655 5652 5649
5715 5721 5724 5727 5729 5730 5731 5731 5731 5731 5730 5729 5728 5726 5724 5721 5719 5717 5714 5713 5710 5706 5703 5701 5698 5696 5694 5690 5686 5683 5679 5676 5673 5670 5667 5662 5659 5656 5654 5650 5648 5644 5644 5642
5708 5713 5714 5715 5720 5721 5719 5718 5719 5719 5719 5721 5721 5717 5716 5713 5712 5710 5707 5705 5702 5699 5696 5694 5691 5689 5687 5684 5680 5676 5673 5670 5668 5665 5661 5658 5654 5651 5645 5642 5637 5633 5630 5628
5704 5709 5710 5710 5711 5712 5710 5711 5711 5711 5711 5711 5711 5710 5708 5706 5704 5702 5700 5697 5694 5691 5689 5687 5684 5682 5680 5677 5674 5670 5667 5664 5662 5659 5656 5652 5650 5647 5643 5636 5631 5627 5624 5621
5695 5696 5695 5699 5701 5703 5703 5703 5703 5703 5703 5704 5703 5702 5700 5698 5696 5693 5691 5690 5688 5685 5682 5680 5677 5675 5673 5671 5667 5664 5662 5658 5655 5653 5650 5648 5645 5643 5640 5636 5632 5629 5622 5616
5686 5689 5690 5692 5693 5693 5694 5694 5692 5692 5693 5693 5694 5693 5691 5689 5687 5685 5684 5683 5681 5678 5675 5673 5669 5667 5666 5664 5660 5658 5656 5653 5650 5648 5645 5643 5641 5638 5636 5632 5629 5626 5622 5616
5677 5680 5682 5682 5682 5683 5684 5684 5683 5683 5684 5684 5684 5684 5683 5682 5681 5678 5677 5675 5672 5670 5667 5665 5662 5660 5658 5656 5653 5652 5650 5645 5642 5642 5641 5638 5635 5633 5630 5626 5623 5620 5617 5614
5666 5666 5669 5670 5671 5673 5675 5676 5676 5676 5676 5675 5675 5676 5675 5673 5672 5670 5669 5668 5665 5663 5661 5658 5656 5654 5652 5650 5648 5648 5646 5643 5636 5637 5636 5633 5629 5626 5623 5620 5617 5614 5612 5608
5660 5662 5663 5664 5665 5665 5666 5668 5669 5668 5667 5668 5668 5668 5667 5665 5664 5663 5663 5662 5659 5657 5655 5653 5651 5648 5647 5645 5643 5643 5642 5639 5635 5633 5630 5627 5623 5621 5618 5615 5612 5610 5608 5604
5653 5654 5655 5656 5658 5659 5660 5661 5661 5661 5661 5661 5660 5660 5660 5660 5659 5659 5657 5655 5652 5650 5649 5648 5642 5643 5643 5641 5637 5637 5636 5633 5630 5627 5624 5619 5618 5617 5614 5611 5608 5605 5603 5600
5644 5645 5646 5648 5650 5651 5652 5653 5653 5654 5654 5654 5654 5653 5653 5654 5654 5652 5651 5649 5649 5648 5645 5642 5639 5639 5638 5637 5632 5634 5631 5628 5625 5622 5619 5617 5614 5611 5609 5606 5603 5601 5599 5596
5636 5638 5638 5640 5641 5643 5645 5646 5646 5646 5647 5647 5646 5646 5647 5647 5648 5647 5645 5644 5643 5641 5639 5636 5636 5635 5634 5631 5626 5629 5627 5625 5622 5619 5616 5613 5610 5607 5605 5602 5599 5597 5595 5592
5629 5630 5631 5632 5634 5636 5638 5640 5640 5641 5641 5641 5641 5641 5641 5641 5642 5641 5641 5640 5639 5634 5635 5635 5634 5630 5628 5624 5625 5625 5623 5621 5618 5615 5612 5608 5605 5603 5601 5598 5595 5592 5590 5587
5622 5623 5625 5626 5627 5629 5631 5633 5635 5636 5636 5636 5635 5635 5636 5636 5637 5637 5636 5636 5636 5630 5631 5631 5626 5621 5619 5621 5622 5621 5619 5616 5614 5611 5608 5605 5603 5599 5596 5593 5590 5587 5584 5581
5616 5617 5619 5622 5624 5625 5626 5629 5631 5631 5632 5631 5632 5631 5630 5631 5632 5634 5634 5630 5626 5624 5627 5622 5618 5615 5613 5618 5617 5616 5614 5612 5609 5607 5604 5601 5597 5594 5591 5588 5585 5582 5579 5575
5612 5614 5616 5617 5619 5621 5623 5625 5625 5626 5628 5629 5629 5628 5629 5630 5629 5629 5628 5625 5620 5619 5620 5617 5612 5609 5612 5613 5612 5610 5608 5606 5603 5601 5597 5594 5592 5589 5586 5583 5579 5576 5573 5569
5608 5611 5613 5614 5617 5618 5620 5622 5623 5624 5624 5625 5625 5626 5626 5626 5624 5623 5622 5620 5618 5614 5615 5613 5610 5607 5608 5608 5606 5604 5601 5598 5595 5593 5590 5588 5586 5583 5580 5576 5572 5569 5566 5563
5607 5609 5610 5612 5615 5616 5619 5619 5619 5620 5622 5622 5621 5620 5620 5620 5619 5618 5616 5615 5613 5612 5610 5608 5607 5605 5603 5601 5599 5597 5594 5591 5588 5585 5583 5580 5578 5575 5572 5568 5564 5560 5557 5554